Content
SEND FEEDBACK

Daily
Averages
Monthly
Summary
United States of America

POTTS JUNCTION, GUAM


Home > North America > United States > Guam
Elevation: 360 feet     Latitude: 13 33N     Longitude: 144 50E

WEATHER
 
SELECT A DAY
Number of Records: 215,809;   Date Range: 1/1/95 - 12/27/14
 
SHARE

PRINT THIS DATA

[ ← Previous Day ]
WEATHER ALMANAC - JULY 12, 2014
[ Next Day → ]
[ °C ]   °F
Weather ElementAverageHighLow
Temperature77.1 °F84.2 °F (4:37 pm) (12:24 pm)
Dewpoint74.1 °F77 °F (12:08 am) (7:00 pm)
Humidity90.7 %100 % (6:39 am)74 % (4:37 pm)
Barometer29.79 in29.84 in (1:54 am)29.75 in (3:54 am)
Wind Speed7.1 mph12.7 mph (8:54 am)
Weather ElementAverage
Visibility7.6 mi
Wind DirectionSSW (190.9 °)

Weather ElementTotal
Precipitation3.94 in
Heating Degree Days22.9 (Base 65)
Averaged from 92 records on July 12, 2014
WEATHER CONDITIONS BREAKOUT
WIND DIRECTION BREAKOUT
WEATHER BY HOUR - JULY 12, 2014
[ °C ]   °F
Local TimeTemperatureDewpointHumidityBarometerVisibilityWind DirectionWind SpeedGust SpeedPrecipitationEventsConditions
12:54 AM79.0 °F77.0 °F94 %29.82 in5.0 miCalm0.19 inRainRain
12:54 AM79.0 °F77.0 °F94 %29.82 in5.0 miCalm0.19 inRainRain
1:02 AM78.8 °F77.0 °F94 %29.84 in10.0 miCalm0.01 inRainLight Rain
1:02 AM78.8 °F77.0 °F94 %29.84 in10.0 miCalm0.01 inRainLight Rain
1:08 AM78.8 °F77.0 °F94 %29.84 in10.0 miCalm0.01 inRainLight Rain
1:08 AM78.8 °F77.0 °F94 %29.84 in10.0 miCalm0.01 inRainLight Rain
1:54 AM78.1 °F77.0 °F96 %29.81 in5.0 miNorth (10°)4.6 mph0.10 inRainHeavy Rain
1:54 AM78.1 °F77.0 °F96 %29.81 in5.0 miNorth (10°)4.6 mph0.10 inRainHeavy Rain
2:00 AM75.2 °F75.2 °F100 %29.83 in2.5 miNorth (350°)10.4 mph0.05 inRainHeavy Rain
2:00 AM75.2 °F75.2 °F100 %29.83 in2.5 miNorth (350°)10.4 mph0.05 inRainHeavy Rain
2:09 AM75.2 °F73.4 °F94 %29.83 in3.0 miNNW (330°)10.4 mph0.14 inRainHeavy Rain
2:09 AM75.2 °F73.4 °F94 %29.83 in3.0 miNNW (330°)10.4 mph0.14 inRainHeavy Rain
2:54 AM74.5 °F73.9 °F98 %29.80 in3.0 miNW (320°)4.6 mph0.47 inRainLight Rain
2:54 AM74.5 °F73.9 °F98 %29.80 in3.0 miNW (320°)4.6 mph0.47 inRainLight Rain
3:01 AM75.2 °F73.4 °F94 %29.81 in9.0 miNW (320°)5.8 mph0.01 inRainLight Rain
3:01 AM75.2 °F73.4 °F94 %29.81 in9.0 miNW (320°)5.8 mph0.01 inRainLight Rain
3:54 AM74.5 °F73.9 °F98 %29.78 in10.0 miNW (310°)9.2 mph0.03 inRainLight Rain
3:54 AM74.5 °F73.9 °F98 %29.78 in10.0 miNW (310°)9.2 mph0.03 inRainLight Rain
4:37 AM75.2 °F75.2 °F100 %29.79 in8.0 miWNW (300°)9.2 mph0.01 inRainLight Rain
4:37 AM75.2 °F75.2 °F100 %29.79 in8.0 miWNW (300°)9.2 mph0.01 inRainLight Rain
4:44 AM75.2 °F75.2 °F100 %29.80 in10.0 miWNW (300°)8.1 mph0.01 inRainLight Rain
4:44 AM75.2 °F75.2 °F100 %29.80 in10.0 miWNW (300°)8.1 mph0.01 inRainLight Rain
4:54 AM77.0 °F75.0 °F94 %29.78 in10.0 miWNW (300°)9.2 mph0.01 inOvercast
4:54 AM77.0 °F75.0 °F94 %29.78 in10.0 miWNW (300°)9.2 mph0.01 inOvercast
5:44 AM0.0 °F0.0 °F29.79 in5.0 miNW (310°)9.2 mph0.01 inRainRain
5:44 AM0.0 °F0.0 °F29.79 in5.0 miNW (310°)9.2 mph0.01 inRainRain
5:54 AM77.2 °F75.9 °F96 %29.78 in3.0 miNW (310°)12.7 mph0.06 inRainRain
5:54 AM77.2 °F75.9 °F96 %29.78 in3.0 miNW (310°)12.7 mph0.06 inRainRain
5:59 AM77.0 °F75.2 °F94 %29.80 in6.0 miNW (320°)12.7 mph0.00 inRainLight Rain
5:59 AM77.0 °F75.2 °F94 %29.80 in6.0 miNW (320°)12.7 mph0.00 inRainLight Rain
6:54 AM77.2 °F75.9 °F96 %29.78 in3.0 miWNW (300°)12.7 mph0.03 inRainLight Rain
6:54 AM77.2 °F75.9 °F96 %29.78 in3.0 miWNW (300°)12.7 mph0.03 inRainLight Rain
7:54 AM77.0 °F75.9 °F96 %29.77 in3.0 miNNW (330°)9.2 mph0.05 inRainLight Rain
7:54 AM77.0 °F75.9 °F96 %29.77 in3.0 miNNW (330°)9.2 mph0.05 inRainLight Rain
8:14 AM78.8 °F77.0 °F94 %29.78 in10.0 miNNW (340°)4.6 mph0.02 inOvercast
8:14 AM78.8 °F77.0 °F94 %29.78 in10.0 miNNW (340°)4.6 mph0.02 inOvercast
8:31 AM78.8 °F77.0 °F94 %29.77 in2.5 miWNW (290°)4.6 mph0.06 inRainRain
8:31 AM78.8 °F77.0 °F94 %29.77 in2.5 miWNW (290°)4.6 mph0.06 inRainRain
8:42 AM78.8 °F77.0 °F94 %29.77 in1.8 miWSW (240°)6.9 mph0.09 inRainHeavy Rain
8:42 AM78.8 °F77.0 °F94 %29.77 in1.8 miWSW (240°)6.9 mph0.09 inRainHeavy Rain
8:50 AM78.8 °F77.0 °F94 %29.77 in2.0 miSSW (210°)8.1 mph0.12 inRainRain
8:50 AM78.8 °F77.0 °F94 %29.77 in2.0 miSSW (210°)8.1 mph0.12 inRainRain
8:54 AM78.4 °F77.0 °F95 %29.75 in2.5 miSSW (210°)8.1 mph0.14 inRainRain
8:54 AM78.4 °F77.0 °F95 %29.75 in2.5 miSSW (210°)8.1 mph0.14 inRainRain
9:38 AM77.0 °F77.0 °F100 %29.78 in3.0 miSSW (210°)12.7 mph0.11 inRainLight Rain
9:38 AM77.0 °F77.0 °F100 %29.78 in3.0 miSSW (210°)12.7 mph0.11 inRainLight Rain
9:51 AM77.0 °F77.0 °F100 %29.78 in5.0 miSouth (190°)9.2 mph0.12 inRainLight Rain
9:51 AM77.0 °F77.0 °F100 %29.78 in5.0 miSouth (190°)9.2 mph0.12 inRainLight Rain
9:54 AM77.2 °F76.1 °F96 %29.76 in7.0 miSSW (200°)9.2 mph0.12 inOvercast
9:54 AM77.2 °F76.1 °F96 %29.76 in7.0 miSSW (200°)9.2 mph0.12 inOvercast
10:01 AM77.0 °F77.0 °F100 %29.78 in10.0 miSouth (190°)9.2 mphOvercast
10:01 AM77.0 °F77.0 °F100 %29.78 in10.0 miSouth (190°)9.2 mphOvercast
10:26 AM77.0 °F77.0 °F100 %29.78 in10.0 miSouth (180°)8.1 mphOvercast
10:26 AM77.0 °F77.0 °F100 %29.78 in10.0 miSouth (180°)8.1 mphOvercast
10:33 AM77.0 °F77.0 °F100 %29.79 in10.0 miSouth (190°)5.8 mphOvercast
10:33 AM77.0 °F77.0 °F100 %29.79 in10.0 miSouth (190°)5.8 mphOvercast
10:54 AM78.1 °F77.0 °F96 %29.78 in10.0 miSouth (190°)8.1 mphOvercast
10:54 AM78.1 °F77.0 °F96 %29.78 in10.0 miSouth (190°)8.1 mphOvercast
11:54 AM80.1 °F77.0 °F90 %29.78 in10.0 miSouth (190°)5.8 mphOvercast
11:54 AM80.1 °F77.0 °F90 %29.78 in10.0 miSouth (190°)5.8 mphOvercast
12:54 PM82.0 °F75.0 °F79 %29.77 in10.0 miSSE (160°)9.2 mphPartly Cloudy
12:54 PM82.0 °F75.0 °F79 %29.77 in10.0 miSSE (160°)9.2 mphPartly Cloudy
1:29 PM82.4 °F75.2 °F79 %29.79 in10.0 miSouth (170°)9.2 mphMostly Cloudy
1:29 PM82.4 °F75.2 °F79 %29.79 in10.0 miSouth (170°)9.2 mphMostly Cloudy
1:45 PM82.4 °F75.2 °F79 %29.78 in10.0 miSSE (150°)10.4 mphScattered Clouds
1:45 PM82.4 °F75.2 °F79 %29.78 in10.0 miSSE (150°)10.4 mphScattered Clouds
1:54 PM82.9 °F75.9 °F79 %29.75 in10.0 miSSE (150°)10.4 mphScattered Clouds
1:54 PM82.9 °F75.9 °F79 %29.75 in10.0 miSSE (150°)10.4 mphScattered Clouds
2:51 PM84.2 °F75.2 °F74 %29.78 in10.0 miSSE (160°)9.2 mphMostly Cloudy
2:51 PM84.2 °F75.2 °F74 %29.78 in10.0 miSSE (160°)9.2 mphMostly Cloudy
2:54 PM82.9 °F75.9 °F79 %29.76 in10.0 miSouth (170°)9.2 mphMostly Cloudy
2:54 PM82.9 °F75.9 °F79 %29.76 in10.0 miSouth (170°)9.2 mphMostly Cloudy
3:15 PM82.4 °F75.2 °F79 %29.79 in10.0 miSouth (180°)10.4 mphScattered Clouds
3:15 PM82.4 °F75.2 °F79 %29.79 in10.0 miSouth (180°)10.4 mphScattered Clouds
3:54 PM82.9 °F75.0 °F77 %29.76 in10.0 miSouth (170°)9.2 mphPartly Cloudy
3:54 PM82.9 °F75.0 °F77 %29.76 in10.0 miSouth (170°)9.2 mphPartly Cloudy
4:54 PM82.9 °F75.0 °F77 %29.75 in10.0 miSSE (160°)9.2 mphPartly Cloudy
4:54 PM82.9 °F75.0 °F77 %29.75 in10.0 miSSE (160°)9.2 mphPartly Cloudy
5:54 PM82.0 °F75.0 °F79 %29.76 in10.0 miSouth (180°)6.9 mphPartly Cloudy
5:54 PM82.0 °F75.0 °F79 %29.76 in10.0 miSouth (180°)6.9 mphPartly Cloudy
6:54 PM80.1 °F75.0 °F85 %29.78 in10.0 miCalmPartly Cloudy
6:54 PM80.1 °F75.0 °F85 %29.78 in10.0 miCalmPartly Cloudy
7:54 PM80.1 °F75.0 °F85 %29.80 in10.0 miCalmPartly Cloudy
7:54 PM80.1 °F75.0 °F85 %29.80 in10.0 miCalmPartly Cloudy
8:54 PM80.1 °F75.0 °F85 %29.82 in10.0 miCalmPartly Cloudy
8:54 PM80.1 °F75.0 °F85 %29.82 in10.0 miCalmPartly Cloudy
9:54 PM80.1 °F75.0 °F85 %29.84 in10.0 miEast (80°)3.5 mphPartly Cloudy
9:54 PM80.1 °F75.0 °F85 %29.84 in10.0 miEast (80°)3.5 mphPartly Cloudy
10:54 PM80.1 °F75.0 °F85 %29.84 in10.0 miESE (110°)3.5 mphPartly Cloudy
10:54 PM80.1 °F75.0 °F85 %29.84 in10.0 miESE (110°)3.5 mphPartly Cloudy
11:54 PM79.0 °F73.9 °F84 %29.82 in10.0 miCalmPartly Cloudy
11:54 PM79.0 °F73.9 °F84 %29.82 in10.0 miCalmPartly Cloudy
Hourly data recorded from PGUM, located miles away from Potts Junction, Guam







STORIES FROM OUR PARTNERS